GW3822 Weather Reports


time (UTC)temp
C
wind
direction
speed
KPH
gust
KPH
rain 1hr
cm
rain 24hr
cm
rain mn
cm
humidity
%
barometer
mb
20260510220024 20 148 0.0 4.8 0.00 0.03 0.03 67 1013.4
20260510215008 20 100 1.6 9.7 0.00 0.03 0.03 67 1013.4
20260510214203 21 312 1.6 6.4 0.00 0.08 0.03 66 1013.3
20260510213149 21 308 1.6 11.3 0.00 0.23 0.03 64 1013.1
20260510211915 21 308 1.6 11.3 0.00 0.33 0.03 62 1013.1
20260510210832 22 300 1.6 11.3 0.00 0.33 0.03 60 1012.8
20260510210028 22 294 1.6 0.0 0.00 0.33 0.03 60 1012.7
20260510204758 22 294 1.6 0.0 0.00 0.33 0.03 59 1012.6
20260510203740 23 294 1.6 0.0 0.00 0.33 0.03 56 1012.6
20260510202723 23 298 1.6 0.0 0.00 0.33 0.03 56 1012.5
20260510201706 23 290 1.6 0.0 0.00 0.33 0.03 55 1012.5
20260510200617 24 292 1.6 0.0 0.00 0.33 0.03 56 1012.6
20260510195600 24 308 1.6 0.0 0.00 0.33 0.03 55 1012.6
20260510194542 24 316 1.6 0.0 0.00 0.33 0.03 55 1012.7
20260510193740 24 316 1.6 0.0 0.00 0.33 0.03 55 1012.8
20260510192721 24 312 3.2 0.0 0.00 0.33 0.03 55 1012.8
20260510191453 24 318 3.2 0.0 0.00 0.33 0.03 55 1012.9
20260510190434 23 320 3.2 0.0 0.00 0.33 0.03 55 1012.9
20260510185630 23 292 3.2 11.3 0.00 0.33 0.03 54 1013.0
20260510184612 24 290 1.6 11.3 0.00 0.33 0.03 54 1013.0
20260510183553 25 292 1.6 11.3 0.00 0.33 0.03 54 1012.9
20260510182324 24 288 3.2 12.9 0.03 0.33 0.03 54 1012.9
20260510181308 24 290 3.2 11.3 0.03 0.33 0.03 55 1013.0
20260510180219 24 280 3.2 12.9 0.03 0.33 0.03 56 1012.9
20260510175418 24 218 3.2 0.0 0.03 0.33 0.03 58 1013.0
20260510174144 23 263 1.6 11.3 0.03 0.33 0.03 59 1013.0
20260510173127 23 270 1.6 0.0 0.03 0.33 0.03 60 1013.0
20260510172111 23 280 3.2 0.0 0.00 0.30 0.00 62 1012.9
20260510171052 23 280 1.6 11.3 0.00 0.30 0.00 63 1013.0
20260510170050 22 207 1.6 0.0 0.00 0.30 0.00 65 1013.0
20260510165016 22 286 1.6 0.0 0.00 0.30 0.00 66 1013.1
20260510163931 22 152 1.6 6.4 0.00 0.30 0.00 68 1013.2
20260510162914 21 36 1.6 0.0 0.00 0.30 0.00 71 1013.2
20260510161858 21 0 1.6 0.0 0.00 0.30 0.00 72 1013.2
20260510160839 20 0 1.6 0.0 0.00 0.30 0.00 74 1013.3
20260510155822 19 165 1.6 4.8 0.00 0.30 0.00 77 1013.5
20260510154805 18 230 1.6 8.0 0.00 0.30 0.00 78 1013.6
20260510153748 18 192 1.6 4.8 0.00 0.30 0.00 80 1013.6
20260510152727 17 174 1.6 4.8 0.00 0.30 0.00 83 1013.6
20260510151925 17 201 0.0 6.4 0.00 0.30 0.00 85 1013.6
20260510150653 16 201 0.0 6.4 0.00 0.30 0.00 87 1013.6
20260510145635 16 152 0.0 4.8 0.00 0.30 0.00 89 1013.6
20260510144833 15 198 0.0 0.0 0.00 0.30 0.00 90 1013.6
20260510143602 15 198 0.0 0.0 0.00 0.30 0.00 91 1013.7
20260510142757 14 127 0.0 3.2 0.00 0.30 0.00 92 1013.6
20260510141525 14 0 0.0 0.0 0.00 0.30 0.00 93 1013.6
20260510140509 13 0 0.0 0.0 0.00 0.30 0.00 94 1013.6
20260510135705 13 0 0.0 0.0 0.00 0.30 0.00 94 1013.4
20260510134433 13 60 0.0 0.0 0.00 0.30 0.00 94 1013.5
20260510133417 13 170 0.0 4.8 0.00 0.30 0.00 94 1013.5
20260510132400 12 154 0.0 3.2 0.00 0.30 0.00 95 1013.6
20260510131531 12 154 0.0 3.2 0.00 0.30 0.00 95 1013.5
20260510130236 12 154 0.0 3.2 0.00 0.30 0.00 95 1013.4
20260510125433 12 40 0.0 0.0 0.00 0.30 0.00 95 1013.2
20260510124201 11 64 0.0 0.0 0.00 0.30 0.00 96 1013.1
20260510123144 11 64 0.0 0.0 0.00 0.30 0.00 96 1013.1
20260510122341 11 40 0.0 0.0 0.00 0.30 0.00 95 1013.1
20260510121111 11 110 0.0 0.0 0.00 0.30 0.00 95 1012.9
20260510120048 11 24 0.0 0.0 0.00 0.30 0.00 95 1012.8
20260510115031 11 24 0.0 0.0 0.00 0.30 0.00 95 1012.7
20260510114005 11 30 0.0 0.0 0.00 0.30 0.00 96 1012.7
20260510112947 11 28 0.0 0.0 0.00 0.30 0.00 96 1012.6
20260510112147 11 0.0 0.0 0.00 0.30 0.00 96 1012.6
20260510110913 10 0 0.0 0.0 0.00 0.30 0.00 95 1012.4
20260510105856 10 42 0.0 0.0 0.00 0.30 0.00 96 1012.3
20260510105055 10 42 0.0 0.0 0.00 0.30 0.00 95 1012.2
20260510103820 10 42 0.0 0.0 0.00 0.30 0.00 95 1012.1
20260510102801 10 48 0.0 0.0 0.00 0.30 0.00 95 1012.1
20260510101741 10 8 0.0 0.0 0.00 0.30 0.00 95 1012.1
20260510100724 10 0 0.0 0.0 0.00 0.30 0.00 95 1012.0
20260510095707 10 342 0.0 0.0 0.00 0.30 0.00 95 1011.9
20260510094649 10 344 0.0 0.0 0.00 0.30 0.00 96 1011.9
20260510093630 10 340 0.0 0.0 0.00 0.30 0.00 96 1012.0
20260510092613 10 344 0.0 0.0 0.00 0.30 0.00 96 1011.9
20260510091557 10 354 0.0 0.0 0.00 0.30 0.00 96 1011.9
20260510090513 10 137 0.0 3.2 0.00 0.30 0.00 95 1011.9
20260510085711 10 137 0.0 3.2 0.00 0.30 0.00 96 1011.6
20260510084653 9 139 0.0 1.6 0.00 0.30 0.00 96 1011.5
20260510083626 9 272 0.0 0.0 0.00 0.30 0.00 96 1011.6
20260510082356 9 342 0.0 0.0 0.00 0.30 0.00 96 1011.5
20260510081340 9 340 0.0 0.0 0.00 0.30 0.00 96 1011.5
20260510080539 9 338 0.0 0.0 0.00 0.30 0.00 96 1011.4
20260510075306 9 332 0.0 0.0 0.00 0.30 0.00 94 1011.3
20260510074502 9 332 0.0 0.0 0.00 0.30 0.00 94 1011.3
20260510073443 9 340 0.0 0.0 0.00 0.30 0.00 94 1011.3
20260510072214 8 330 0.0 0.0 0.00 0.30 0.00 94 1011.2
20260510071156 9 332 0.0 0.0 0.00 0.30 0.00 94 1011.1
20260510070130 8 340 0.0 0.0 0.00 0.30 0.00 94 1011.1
20260510065111 8 340 0.0 0.0 0.00 0.30 0.00 94 1010.9
20260510064055 8 340 0.0 0.0 0.00 0.30 0.00 94 1010.9
20260510063252 9 272 0.0 0.0 0.00 0.30 0.00 94 1010.9
20260510062021 8 68 0.0 0.0 0.00 0.30 0.00 94 1011.0
20260510061004 8 68 0.0 0.0 0.00 0.30 0.00 94 1011.0
20260510055945 9 331 0.0 0.0 0.00 0.30 0.00 94 1011.1
20260510054926 9 68 0.0 0.0 0.00 0.30 0.00 94 1011.2
20260510053910 9 68 0.0 0.0 0.00 0.30 0.00 94 1011.2
20260510052853 9 0 0.0 0.0 0.00 0.30 0.00 94 1011.2
20260510051810 10 0 0.0 0.0 0.00 0.30 0.00 94 1011.2
20260510050753 10 0 0.0 0.0 0.00 0.30 0.00 94 1011.3
20260510045949 10 0 0.0 0.0 0.00 0.30 0.00 94 1011.4
20260510044717 10 0 0.0 0.0 0.00 0.30 0.00 94 1011.4
20260510043658 10 0 0.0 0.0 0.00 0.30 0.00 94 1011.5
20260510042854 10 340 0.0 0.0 0.00 0.30 0.00 94 1011.5
20260510041615 10 342 0.0 0.0 0.00 0.30 0.00 93 1011.5
20260510040551 10 280 0.0 0.0 0.00 0.30 0.00 93 1011.5
20260510035534 10 0 0.0 0.0 0.00 0.30 0.30 93 1011.3
20260510034732 9 2 0.0 0.0 0.00 0.30 0.30 93 1011.2
20260510033457 9 87 0.0 0.0 0.00 0.30 0.30 93 1011.1
20260510032439 10 98 0.0 0.0 0.00 0.30 0.30 93 1011.2
20260510031420 10 0 0.0 0.0 0.00 0.30 0.30 93 1011.1
20260510030613 10 0 0.0 0.0 0.00 0.30 0.30 93 1011.2
20260510025555 10 8 0.0 0.0 0.00 0.30 0.30 92 1011.0
20260510024536 10 8 0.0 0.0 0.00 0.30 0.30 92 1011.1
20260510023305 10 12 0.0 0.0 0.00 0.30 0.30 92 1011.1
20260510022245 10 10 0.0 0.0 0.00 0.30 0.30 92 1011.0
20260510021441 10 16 0.0 0.0 0.00 0.30 0.30 92 1011.0
20260510020211 10 10 0.0 0.0 0.00 0.30 0.30 92 1011.0
20260510015151 10 0 0.0 0.0 0.00 0.30 0.30 92 1011.0
20260510014134 10 0 0.0 0.0 0.00 0.30 0.30 92 1011.1
20260510013116 10 0 0.0 0.0 0.00 0.30 0.30 92 1011.1
20260510012033 11 0 0.0 0.0 0.00 0.30 0.30 91 1010.9
20260510011007 11 0 0.0 0.0 0.00 0.30 0.30 91 1010.7
20260510005948 11 128 0.0 1.6 0.00 0.30 0.30 91 1010.6
20260510004932 11 0 0.0 0.0 0.00 0.30 0.30 91 1010.6
20260510003915 11 24 0.0 0.0 0.00 0.30 0.30 91 1010.5
20260510002854 11 24 0.0 0.0 0.00 0.30 0.30 91 1010.5
20260510001812 12 20 0.0 0.0 0.00 0.30 0.30 90 1010.5
20260510000755 12 14 0.0 0.0 0.00 0.30 0.30 90 1010.4
20260509235738 12 68 0.0 0.0 0.00 0.30 0.30 90 1010.3
20260509234721 12 70 0.0 0.0 0.00 0.30 0.30 90 1010.3
20260509233705 13 70 0.0 0.0 0.00 0.30 0.30 89 1010.3
20260509232648 13 72 0.0 0.0 0.00 0.30 0.30 89 1010.2
20260509231631 13 88 0.0 0.0 0.00 0.30 0.30 89 1010.2
20260509230827 13 94 0.0 0.0 0.00 0.30 0.30 89 1010.2
20260509225548 13 112 0.0 0.0 0.00 0.30 0.30 89 1010.3
20260509224455 13 108 0.0 0.0 0.00 0.30 0.30 89 1010.3
20260509223408 13 108 0.0 0.0 0.05 0.30 0.30 89 1010.3
20260509222604 13 108 0.0 0.0 0.20 0.30 0.30 88 1010.5
20260509221328 13 112 0.0 0.0 0.30 0.30 0.30 88 1010.6